Location: Unspecified
(42.3650°N, 71.1030°W)
Time: 00:06:39
(UTC+00:00)

Courier 1B Rocket - Pass Details

Date: 04 July 2024
Orbit: 920 x 1201 km, 28.2° (Epoch: 14 July)

Event Time Altitude Azimuth Distance (km) Brightness Sun altitude
Rises 02:43:22 0° 228° (SW) 3,617 7.9 -18.6°
Reaches altitude 10° 02:46:51 10° 210° (SSW) 2,639 7.0 -19.0°
Enters shadow 02:47:27 12° 206° (SSW) 2,501 6.8 -19.0°
